* Astronomy

Members Login
Username 
 
Password 
    Remember Me  
Post Info TOPIC: Asteroid 2009 HW44


L

Posts: 131433
Date:
Asteroid 2009 HW44
Permalink  
 


Orbital elements:
2009 HW44 Earth MOID = 0.2992 AU
Epoch 2009 June 18.0 TT = JDT 2455000.5 MPC
M 327.38949 (2000.0) P Q
n 0.21962431 Peri. 295.99996 +0.76586741 +0.50247927
a 2.7207112 Node 38.06059 -0.01235895 +0.63534048
e 0.6057988 Incl. 40.60020 -0.64287975 +0.58639326
P 4.49 H 17.6 G 0.15 U 9

MPEC 2009 - H49


__________________
Page 1 of 1  sorted by
 
Quick Reply

Please log in to post quick replies.



Create your own FREE Forum
Report Abuse
Powered by ActiveBoard